CW9865 Weather Reports


Display with metric or nautical units.
time (UTC)temp
F
wind
direction
speed
MPH
gust
MPH
rain 1hr
in
rain 24hr
in
rain mn
in
humidity
%
barometer
mb
20260510043105 48 100 0.0 2.0 0.00 0.36 0.00 98 1009.2
20260510042959 48 100 0.0 2.0 0.00 0.36 0.00 98 1008.5
20260510041611 48 100 0.0 2.0 0.00 0.36 0.00 98 1009.4
20260510041459 48 100 0.0 0.0 0.00 0.36 0.00 98 1008.6
20260510040058 48 100 0.0 0.0 0.00 0.36 0.00 98 1009.6
20260510040004 48 100 0.0 0.0 0.00 0.36 0.00 98 1009.6
20260510035502 48 100 0.0 0.0 0.00 0.36 0.36 98 1008.9
20260510034508 48 100 0.0 2.0 0.00 0.36 0.36 98 1008.5
20260510034001 48 100 0.0 2.0 0.00 0.36 0.36 98 1008.5
20260510033101 48 70 0.0 2.0 0.00 0.36 0.36 98 1009.2
20260510033000 48 70 0.0 2.0 0.00 0.36 0.36 98 1008.4
20260510032502 48 70 0.0 2.0 0.00 0.36 0.36 98 1008.6
20260510031602 48 70 0.0 0.0 0.00 0.36 0.36 98 1009.4
20260510031000 48 70 0.0 2.0 0.00 0.36 0.36 98 1008.5
20260510030005 48 67 0.0 2.0 0.00 0.36 0.36 98 1008.5
20260510030001 48 67 0.0 2.0 0.00 0.36 0.36 98 1009.2
20260510025506 48 67 0.0 2.0 0.00 0.36 0.36 98 1008.3
20260510024603 48 64 0.0 0.0 0.00 0.36 0.36 98 1009.3
20260510024505 48 64 0.0 0.0 0.00 0.36 0.36 98 1008.6
20260510024001 48 64 0.0 0.0 0.00 0.36 0.36 98 1008.6
20260510023114 48 64 0.0 1.0 0.00 0.36 0.36 98 1009.1
20260510023112 48 64 0.0 1.0 0.00 0.36 0.36 98 1008.3
20260510022459 48 64 0.0 2.0 0.00 0.36 0.36 98 1008.2
20260510021459 49 156 0.0 2.0 0.00 0.36 0.36 98 1008.5
20260510021000 49 102 0.0 0.0 0.00 0.36 0.36 98 1008.5
20260510020100 49 102 0.0 2.0 0.00 0.36 0.36 98 1009.2
20260510020001 49 102 0.0 2.0 0.00 0.36 0.36 98 1009.1
20260510015525 49 64 0.0 2.0 0.00 0.36 0.36 98 1008.4
20260510014606 49 64 0.0 2.0 0.00 0.36 0.36 98 1009.1
20260510013959 49 75 0.0 0.0 0.00 0.36 0.36 98 1008.3
20260510013108 49 74 0.0 1.0 0.00 0.36 0.36 98 1009.5
20260510013043 49 74 0.0 1.0 0.00 0.36 0.36 98 1008.6
20260510012459 49 74 0.0 0.0 0.00 0.36 0.36 98 1008.6
20260510011600 49 74 0.0 1.0 0.00 0.36 0.36 98 1009.1
20260510011513 49 74 0.0 1.0 0.00 0.36 0.36 98 1008.3
20260510011001 49 74 0.0 0.0 0.00 0.36 0.36 98 1008.3
20260510010112 49 74 0.0 1.0 0.00 0.36 0.36 98 1009.4
20260510010000 49 74 0.0 1.0 0.00 0.36 0.36 98 1008.6
20260510005459 49 74 0.0 1.0 0.00 0.36 0.36 98 1008.6
20260510004604 49 75 0.0 0.0 0.00 0.36 0.36 98 1009.0
20260510004458 49 75 0.0 0.0 0.00 0.36 0.36 98 1008.1
20260510003959 49 75 0.0 2.0 0.00 0.36 0.36 98 1008.0
20260510003104 49 92 0.0 2.0 0.00 0.36 0.36 98 1008.9
20260510001601 49 90 0.0 1.0 0.00 0.36 0.36 98 1008.8
20260510001459 49 90 0.0 1.0 0.00 0.36 0.36 98 1008.0
20260510000959 49 90 0.0 1.0 0.00 0.36 0.36 98 1007.9
20260510000123 49 90 0.0 2.0 0.00 0.36 0.36 98 1008.8
20260510000002 49 90 0.0 2.0 0.00 0.36 0.36 98 1007.9
20260509235459 49 90 0.0 2.0 0.00 0.36 0.36 98 1007.7
20260509233102 50 59 0.0 2.0 0.00 0.36 0.36 98 1008.2
20260509233003 50 59 0.0 2.0 0.00 0.36 0.36 98 1007.3
20260509232500 50 59 0.0 2.0 0.00 0.36 0.36 98 1007.3
20260509232000 50 59 0.0 2.0 0.00 0.36 0.36 98 1007.4
20260509231600 50 59 0.0 0.0 0.00 0.36 0.36 98 1008.3
20260509231500 50 59 0.0 0.0 0.00 0.36 0.36 98 1007.5
20260509231000 50 59 0.0 2.0 0.00 0.36 0.36 98 1007.4
20260509230105 50 74 0.0 3.0 0.00 0.36 0.36 98 1008.0
20260509225530 50 69 0.0 6.0 0.00 0.36 0.36 98 1007.2
20260509225003 50 69 0.0 7.0 0.00 0.36 0.36 98 1007.2
20260509224658 50 56 0.0 2.0 0.00 0.36 0.36 98 1007.9
20260509224532 50 53 0.0 2.0 0.00 0.36 0.36 98 1007.0
20260509223159 50 115 0.0 2.0 0.00 0.36 0.36 98 1007.9
20260509221958 50 115 0.0 2.0 0.00 0.36 0.36 98 1007.1
20260509221610 50 115 0.0 2.0 0.00 0.36 0.36 98 1008.0
20260509220459 50 100 0.0 2.0 0.00 0.36 0.36 99 1007.2
20260509220011 50 104 0.0 1.0 0.00 0.36 0.36 99 1007.3
20260509220001 50 104 0.0 1.0 0.00 0.36 0.36 99 1008.2
20260509214559 49 104 0.0 2.0 0.00 0.36 0.36 99 1008.4
20260509213102 49 86 0.0 1.0 0.00 0.36 0.36 98 1008.5
20260509213004 49 86 0.0 1.0 0.00 0.36 0.36 98 1008.5
20260509212000 48 86 0.0 3.0 0.00 0.36 0.36 98 1007.7
20260509211559 48 86 0.0 3.0 0.00 0.36 0.36 98 1008.5
20260509211513 48 90 0.0 3.0 0.00 0.36 0.36 98 1007.7
20260509210159 48 102 0.0 0.0 0.00 0.36 0.36 98 1008.7
20260509210000 48 102 0.0 1.0 0.00 0.36 0.36 98 1007.8
20260509204602 48 102 0.0 2.0 0.00 0.36 0.36 98 1008.6
20260509204458 48 101 0.0 2.0 0.00 0.36 0.36 98 1007.7
20260509203458 48 65 0.0 0.0 0.00 0.36 0.36 98 1007.8
20260509203158 48 65 0.0 0.0 0.00 0.36 0.36 98 1008.7
20260509202958 47 65 0.0 0.0 0.00 0.36 0.36 98 1007.8
20260509201958 47 66 0.0 4.0 0.00 0.36 0.36 98 1008.0
20260509201559 47 67 0.0 4.0 0.00 0.36 0.36 98 1009.0
20260509200958 47 97 0.0 1.0 0.00 0.36 0.36 98 1008.1
20260509200106 47 98 0.0 2.0 0.00 0.36 0.36 98 1008.9
20260509195958 47 98 0.0 2.0 0.00 0.36 0.36 98 1008.1
20260509195459 47 98 0.0 2.0 0.01 0.36 0.36 98 1008.1
20260509195001 47 99 0.0 1.0 0.01 0.36 0.36 98 1008.2
20260509194557 47 99 0.0 2.0 0.01 0.36 0.36 98 1009.1
20260509194535 47 99 0.0 2.0 0.01 0.36 0.36 98 1008.2
20260509193959 47 99 0.0 2.0 0.01 0.36 0.36 98 1008.3
20260509193125 47 137 0.0 2.0 0.01 0.36 0.36 98 1009.4
20260509193006 47 137 0.0 2.0 0.01 0.36 0.36 98 1008.5
20260509192458 47 137 0.0 2.0 0.01 0.36 0.36 98 1008.6
20260509192001 46 135 0.0 1.0 0.01 0.36 0.36 98 1008.6
20260509191614 46 135 0.0 2.0 0.01 0.36 0.36 98 1009.5
20260509191520 46 135 0.0 2.0 0.01 0.36 0.36 98 1008.7
20260509191035 46 121 0.0 2.0 0.01 0.36 0.36 98 1008.5
20260509190112 46 121 0.0 1.0 0.01 0.36 0.36 98 1009.8
20260509185958 46 121 0.0 2.0 0.01 0.36 0.36 98 1008.9
20260509185459 46 121 0.0 2.0 0.01 0.35 0.35 98 1008.9
20260509184558 46 65 0.0 3.0 0.01 0.35 0.35 98 1009.8
20260509184457 46 61 0.0 3.0 0.01 0.35 0.35 98 1008.9
20260509183958 46 100 0.0 2.0 0.01 0.35 0.35 98 1008.8
20260509183102 46 106 0.0 2.0 0.02 0.35 0.35 98 1009.5
20260509183020 46 106 0.0 2.0 0.02 0.35 0.35 98 1008.6
20260509182502 45 39 0.0 2.0 0.02 0.35 0.35 98 1008.6
20260509181558 45 74 0.0 3.0 0.03 0.35 0.35 98 1009.6
20260509180958 45 97 0.0 3.0 0.03 0.35 0.35 98 1008.8
20260509180058 45 69 0.0 7.0 0.03 0.35 0.35 97 1009.7
20260509175958 45 69 1.0 7.0 0.03 0.35 0.35 97 1008.9
20260509174558 45 152 0.0 4.0 0.03 0.34 0.34 97 1009.8
20260509174547 45 152 0.0 4.0 0.03 0.34 0.34 97 1008.9
20260509173958 45 80 0.0 4.0 0.03 0.34 0.34 97 1008.8
20260509171617 45 108 0.0 3.0 0.03 0.32 0.32 97 1010.0
20260509171458 45 82 0.0 2.0 0.03 0.32 0.32 98 1009.1
20260509170958 45 93 0.0 3.0 0.03 0.32 0.32 98 1009.2
20260509170058 45 33 0.0 3.0 0.04 0.32 0.32 98 1010.1
20260509165538 44 79 0.0 2.0 0.04 0.32 0.32 97 1009.2
20260509164558 44 151 0.0 2.0 0.04 0.31 0.31 97 1010.2
20260509164458 44 151 0.0 2.0 0.05 0.31 0.31 97 1009.2
20260509163958 44 356 0.0 3.0 0.05 0.31 0.31 97 1009.3
20260509163133 44 61 0.0 3.0 0.05 0.30 0.30 97 1010.4
20260509163131 44 56 0.0 3.0 0.05 0.30 0.30 97 1009.6
20260509162458 44 64 0.0 3.0 0.05 0.30 0.30 97 1009.6
20260509161558 44 119 0.0 4.0 0.06 0.28 0.28 97 1010.4
20260509161458 44 115 1.0 4.0 0.06 0.29 0.29 97 1009.6
20260509160958 44 83 0.0 3.0 0.07 0.29 0.29 97 1009.7
20260509160058 44 34 0.0 2.0 0.06 0.28 0.28 97 1010.7
20260509155959 44 34 0.0 2.0 0.07 0.28 0.28 97 1009.8
20260509155500 44 36 0.0 3.0 0.07 0.28 0.28 97 1009.9
20260509154559 44 67 0.0 3.0 0.07 0.27 0.27 97 1011.0
20260509154458 44 63 0.0 3.0 0.06 0.26 0.26 97 1010.0
20260509154102 44 94 0.0 3.0 0.07 0.26 0.26 97 1010.1
20260509153505 44 114 0.0 3.0 0.07 0.26 0.26 97 1010.2
20260509153101 43 114 0.0 6.0 0.07 0.25 0.25 97 1011.2
20260509152958 43 114 0.0 6.0 0.07 0.25 0.25 97 1010.3
20260509152458 43 96 0.0 6.0 0.07 0.25 0.25 97 1010.3
20260509151606 43 123 0.0 2.0 0.06 0.23 0.23 97 1011.4
20260509151101 43 125 0.0 2.0 0.05 0.22 0.22 97 1010.6
20260509150058 43 106 0.0 2.0 0.06 0.22 0.22 97 1011.5
20260509145959 43 106 0.0 2.0 0.05 0.21 0.21 97 1010.5
20260509145458 43 229 0.0 3.0 0.05 0.21 0.21 96 1010.4
20260509145000 43 229 0.0 3.0 0.05 0.20 0.20 96 1010.4
20260509144601 43 63 0.0 2.0 0.05 0.20 0.20 96 1011.3
20260509144100 42 65 0.0 4.0 0.04 0.19 0.19 96 1010.5
20260509143059 42 47 0.0 2.0 0.04 0.18 0.18 96 1011.3
20260509143007 42 47 0.0 2.0 0.05 0.18 0.18 96 1010.4
20260509141559 42 39 0.0 4.0 0.05 0.17 0.17 96 1011.4
20260509141458 42 39 0.0 4.0 0.06 0.17 0.17 96 1010.5
20260509140958 42 103 0.0 2.0 0.06 0.17 0.17 96 1010.5
20260509135458 42 92 0.0 0.0 0.07 0.16 0.16 96 1010.5
20260509134634 42 92 0.0 0.0 0.07 0.15 0.15 96 1011.2
20260509134631 42 92 0.0 0.0 0.07 0.15 0.15 96 1010.3
20260509133957 42 92 0.0 0.0 0.07 0.15 0.15 96 1010.4
20260509133058 42 92 0.0 2.0 0.07 0.14 0.14 96 1011.5
20260509132459 42 92 0.0 2.0 0.06 0.13 0.13 96 1010.4
20260509131634 42 92 0.0 1.0 0.06 0.12 0.12 96 1011.4
20260509131457 42 91 0.0 0.0 0.05 0.11 0.11 96 1010.5
20260509130957 42 92 0.0 0.0 0.06 0.11 0.11 96 1010.5
20260509130505 41 92 0.0 0.0 0.05 0.10 0.10 96 1010.5
20260509130125 41 91 0.0 2.0 0.05 0.10 0.10 96 1011.7
20260509125959 41 92 0.0 2.0 0.04 0.09 0.09 96 1010.7
20260509124558 41 131 0.0 0.0 0.04 0.08 0.08 96 1011.5
20260509124457 41 131 0.0 0.0 0.04 0.08 0.08 96 1010.5
20260509123958 41 131 0.0 2.0 0.05 0.08 0.08 95 1010.5
20260509123104 41 131 0.0 2.0 0.04 0.07 0.07 95 1011.4
20260509122957 41 131 0.0 2.0 0.04 0.07 0.07 95 1010.5
20260509122458 41 140 0.0 1.0 0.04 0.06 0.06 95 1010.5
20260509121557 40 140 0.0 0.0 0.05 0.06 0.06 95 1011.6
20260509121458 40 140 0.0 0.0 0.05 0.06 0.06 95 1010.6
20260509121001 40 140 0.0 0.0 0.04 0.05 0.05 95 1010.6
20260509115959 40 140 0.0 0.0 0.03 0.04 0.04 94 1010.8
20260509115458 40 141 0.0 0.0 0.03 0.04 0.04 94 1010.9
20260509114610 40 141 0.0 2.0 0.03 0.04 0.04 94 1011.7
20260509114458 40 140 0.0 2.0 0.03 0.04 0.04 94 1010.7
20260509113958 40 140 0.0 2.0 0.02 0.03 0.03 93 1010.7
20260509113105 40 141 0.0 0.0 0.02 0.03 0.03 93 1011.7
20260509113001 40 141 0.0 0.0 0.02 0.03 0.03 93 1010.7
20260509111605 40 141 0.0 0.0 0.00 0.01 0.01 91 1011.7
20260509111457 40 141 0.0 0.0 0.00 0.01 0.01 91 1010.7
20260509110957 40 141 0.0 0.0 0.01 0.01 0.01 91 1010.9
20260509110107 40 141 0.0 2.0 0.01 0.01 0.01 91 1011.9
20260509105957 40 141 0.0 2.0 0.01 0.01 0.01 91 1011.0
20260509105457 40 140 0.0 2.0 0.01 0.01 0.01 91 1010.8
20260509104959 40 103 0.0 1.0 0.01 0.01 0.01 90 1010.7
20260509104619 40 103 0.0 4.0 0.01 0.01 0.01 90 1011.7
20260509104616 40 103 0.0 4.0 0.01 0.01 0.01 91 1010.7
20260509103056 40 90 0.0 5.0 0.01 0.01 0.01 92 1011.5
20260509102957 40 90 0.0 5.0 0.01 0.01 0.01 92 1010.5
20260509101556 40 83 0.0 2.0 0.01 0.01 0.01 92 1011.9
20260509101458 40 83 0.0 2.0 0.01 0.01 0.01 92 1010.8
20260509100957 40 103 0.0 2.0 0.00 0.00 0.00 92 1011.0
20260509095457 40 92 0.0 2.0 0.00 0.00 0.00 91 1011.0
20260509094610 40 131 0.0 2.0 0.00 0.00 0.00 91 1011.8
20260509094457 40 131 0.0 2.0 0.00 0.00 0.00 91 1010.7
20260509093956 40 65 0.0 2.0 0.00 0.00 0.00 90 1010.7
20260509093057 40 125 0.0 2.0 0.00 0.00 0.00 89 1011.9
20260509092956 40 125 0.0 2.0 0.00 0.00 0.00 88 1010.9
20260509092456 41 125 0.0 2.0 0.00 0.00 0.00 88 1011.1
20260509091656 41 125 0.0 2.0 0.00 0.00 0.00 86 1012.1
20260509090956 41 125 0.0 2.0 0.00 0.00 0.00 82 1011.3
20260509090157 40 260 0.0 2.0 0.00 0.00 0.00 81 1012.4
20260509085457 40 260 0.0 2.0 0.00 0.00 0.00 82 1011.3
20260509084601 40 260 0.0 2.0 0.00 0.00 0.00 85 1012.2
20260509084456 39 260 0.0 2.0 0.00 0.00 0.00 85 1011.2
20260509083956 39 260 0.0 0.0 0.00 0.00 0.00 85 1011.3
20260509083058 39 260 0.0 0.0 0.00 0.00 0.00 86 1012.3
20260509082956 39 260 0.0 0.0 0.00 0.00 0.00 86 1011.3
20260509082457 39 260 0.0 0.0 0.00 0.00 0.00 86 1011.3
20260509081557 38 260 0.0 0.0 0.00 0.00 0.00 84 1012.2
20260509081504 38 260 0.0 0.0 0.00 0.00 0.00 84 1011.3
20260509080956 38 260 0.0 0.0 0.00 0.00 0.00 85 1011.3
20260509075457 38 260 0.0 0.0 0.00 0.00 0.00 84 1011.0
20260509074602 37 260 0.0 0.0 0.00 0.00 0.00 84 1012.0
20260509074456 37 260 0.0 0.0 0.00 0.00 0.00 85 1011.1
20260509073957 37 260 0.0 0.0 0.00 0.00 0.00 86 1011.0
20260509073500 37 260 0.0 0.0 0.00 0.00 0.00 87 1011.0
20260509073057 37 260 0.0 0.0 0.00 0.00 0.00 87 1011.8
20260509073046 37 260 0.0 0.0 0.00 0.00 0.00 87 1010.8
20260509072457 37 260 0.0 0.0 0.00 0.00 0.00 85 1010.9
20260509071605 36 260 0.0 0.0 0.00 0.00 0.00 84 1011.9
20260509070956 36 260 0.0 0.0 0.00 0.00 0.00 84 1011.0
20260509070105 36 260 0.0 0.0 0.00 0.00 0.00 83 1011.9
20260509070021 36 260 0.0 0.0 0.00 0.00 0.00 83 1011.0
20260509064558 36 260 0.0 0.0 0.00 0.00 0.00 81 1012.0
20260509064456 36 260 0.0 0.0 0.00 0.00 0.00 81 1011.0
20260509063956 36 260 0.0 0.0 0.00 0.00 0.00 79 1011.1
20260509063056 37 260 0.0 0.0 0.00 0.00 0.00 80 1012.1
20260509062956 37 260 0.0 0.0 0.00 0.00 0.00 81 1011.1
20260509062457 37 260 0.0 0.0 0.00 0.00 0.00 80 1011.2
20260509060100 38 260 0.0 0.0 0.00 0.00 0.00 81 1012.4
20260509055958 38 260 0.0 0.0 0.00 0.00 0.00 81 1011.4
20260509055456 38 260 0.0 0.0 0.00 0.00 0.00 78 1011.4
20260509053956 39 260 0.0 0.0 0.00 0.00 0.00 77 1011.6
20260509053158 39 260 0.0 0.0 0.00 0.00 0.00 78 1012.7
20260509052456 39 260 0.0 0.0 0.00 0.00 0.00 77 1011.7
20260509051557 39 260 0.0 0.0 0.00 0.00 0.00 76 1012.7
20260509051519 39 260 0.0 0.0 0.00 0.00 0.00 77 1011.8
20260509051006 39 260 0.0 0.0 0.00 0.00 0.00 80 1011.7
20260509050157 39 260 0.0 0.0 0.00 0.00 0.00 80 1012.7
20260509045509 39 260 0.0 0.0 0.00 0.00 0.00 82 1011.8
20260509044600 39 260 0.0 0.0 0.00 0.00 0.00 82 1012.8
20260509044459 39 260 0.0 0.0 0.00 0.00 0.00 82 1011.7
20260509044002 39 260 0.0 0.0 0.00 0.00 0.00 82 1011.8